THOR ABLESTAR DEB, 2432

Orbit data source: Space-Track

THOR ABLESTAR DEB, 2432 is space debris in LEO originally from a launch on Thu, 05 Dec 1963 UTC launched from the Air Force Western Test Range (AFWTR). Debris objects in space refer to the collection of defunct objects orbiting the Earth. Examples of debris include non-operational satellites, rocket bodies, and fragments generated from explosions, collisions, or faulty payload assembly.

Loading next visibility...
Identifier
2432, 1963-049G
Orbit
LEO
Country
Flag of USUS
Related business
Manufacturer
Unknown
Mission
Spacecraft
Bus & Motor
Unknown
Mass
Unknown
Launch date (UTC)
1963-12-05 (63 years ago)
Launch vehicle
Unknown
Launch site
Air Force Western Test Range (AFWTR)
Object type
Payload
Rocket body
Debris
Shape & HBR
Unknown shape, 0.2 m
Radar Cross Section
Medium (>0.1 m² and <1 m²)

Expand to show TLE details & history
Last TLE update: 20 hours ago

TLE from 20 hours ago
0 THOR ABLESTAR DEB
1  2432U 63049G   26171.25257799  .00000083  00000-0  11944-3 0  9999
2  2432  89.9239  70.6296 0032658 223.8315 261.5495 13.48259391 73110
Epoch: 2026-06-20T06:03Z
TLE epoch observation values (Epoch: 2026-06-20T06:03:42.738Z)
Latitude
55.08258°
Longitude
-108.8768°
Altitude
1,091.523 km
Speed
7.31 km/s
True Right ascension
16h 42m 05s
True Declination
54° 55' 42"
Sunlit
Object was in daylight at epoch
Visualization orbit readout
Latitude
Unknown
Longitude
Unknown
Altitude
Unknown
Speed
Unknown
Apparent Right ascension
Unknown
Apparent Declination
Unknown
Sunlit
N/A
Visualization observer readout
Local Sidereal Time
13:09:52
Azimuth
Unknown
Elevation
Unknown
Doppler factor
Unknown
Orbital elements
Apogee altitude
1,100.065 km
Perigee altitude
1,051.379 km
Semi-major axis
7,453.859 km
Eccentricity
0.00327
Inclination
89.9239°
RAAN
70.6296°
Arg. of periapsis
223.8315°
True anomaly
261.17955°
Mean anomaly
261.5495°
Eccentric anomaly
261.3645°
Mean motion
3.37265 °/min
Orbital period
106.74 mins
BSTAR
0.00011944
Loading maneuver chart data...
Computing Atmospheric mass density...
Loading historical data...
Loading historical data...
Loading historical data...
Loading historical data...
Loading historical data...
Loading historical data...
Loading historical data...

Documentation

Showing up to 5 results
|